Terminal Aerodrome Forecast
Issued by NWS

Home | Current Version | Previous Version | Text Only | Print | Product List | Glossary On
Versions: 1 2 3 4 5 6 7 8 9 10 11 12
000
FTUS45 KRIW 211700
TAFCPR
TAF
KCPR 211720Z 2118/2218 23028G36KT P6SM SCT040 BKN090
     FM212100 27014G24KT P6SM VCSH SCT040 BKN070
     FM220800 27013G21KT P6SM SCT070=

USA.gov is the U.S. government's official web portal to all federal, state and local government web resources and services.